Tracking 31027 objects as of 19-Jul-2025
HD Live streaming from Space Station
objects crossing your sky now

STARLINK-4045

Track STARLINK-4045 now!
10-day predictions
STARLINK-4045 is classified as:


NORAD ID: 53152
Int'l Code: 2022-083W
Perigee: 545.9 km
Apogee: 547.9 km
Inclination: 53.2 °
Period: 95.4 minutes
Semi major axis: 6917 km
RCS: Unknown
Launch date: July 17, 2022
Source: United States (US)
Launch site: AIR FORCE EASTERN TEST RANGE (AFETR)
Your satellite tracking list
FLOCK 4V 13
Track 1 satellite(s)




NASA's NSSDC Master Catalog

Two Line Element Set (TLE):
1 53152U 22083W   25199.84813899 -.00000776  00000-0 -30648-4 0  9994
2 53152  53.2177 133.8748 0001462  94.3109 265.8050 15.08832716166680
Source of the keplerian elements: AFSPC